Showing default

EXPLORER 40 (INJUN-5), 3338

Orbit data source: Space-Track

EXPLORER 40 (INJUN-5), 3338 is a payload satellite owned by NASA LaRC (US) in LEO that was launched on Thu, 08 Aug 1968 UTC via an SCOUT B launch vehicle from the Air Force Western Test Range (AFWTR). Payload-class satellites include a variety of spacecraft equipped with specific instruments for various scientific and technological missions. These include communications satellites like Starlink; space stations such as the ISS; scientific satellites like the Hubble; Earth observation satellites from companies like Planet Labs, Umbra, and HawkEye 360; GPS; miniature CubeSats for education and research; and military/defense satellites.

Loading next visibility...
Identifier
3338, 1968-066B
Orbit
LEO
Country
Flag of USUS
Related business
Manufacturer
Iowa
Mission
Spacecraft
Bus & Motor
INJUN E, Unknown motor
Mass
70 kg wet, 70 kg dry
Launch date (UTC)
1968-08-08 (57 years ago)
Launch vehicle
SCOUT B
Launch site
Air Force Western Test Range (AFWTR)
Object type
Payload
Rocket body
Debris
Shape & HBR
Unknown
Radar Cross Section
Large (>1 m²)

Expand to show TLE details & history
Last TLE update: 9 hours ago

TLE from 9 hours ago
0 EXPLORER 40 (INJUN-5)
1 03338U 68066B   25300.89309682  .00000342  00000-0  34730-3 0  9997
2 03338  80.6578 264.5489 1130878  56.2102 314.1538 12.23481058549901
Epoch: 2025-10-27T21:26Z
TLE epoch observation values (Epoch: 2025-10-27T21:26:03.565Z)
Latitude
-0.00011°
Longitude
-93.45438°
Altitude
1,012.197 km
Speed
7.603 km/s
True Right ascension
17h 38m 11s
True Declination
0° 00' 00"
Sunlit
Object was in daylight at epoch
Visualization orbit readout
Latitude
Unknown
Longitude
Unknown
Altitude
Unknown
Speed
Unknown
Apparent Right ascension
Unknown
Apparent Declination
Unknown
Sunlit
N/A
Visualization observer readout
Local Sidereal Time
01:28:19
Azimuth
Unknown
Elevation
Unknown
Doppler factor
Unknown
Orbital elements
Apogee altitude
2,474.205 km
Perigee altitude
675.439 km
Semi-major axis
7,952.959 km
Eccentricity
0.11309
Inclination
80.6578°
RAAN
264.5489°
Arg. of periapsis
56.2102°
True anomaly
303.90124°
Mean anomaly
314.1538°
Eccentric anomaly
309.1274°
Mean motion
3.0602 °/min
Orbital period
117.64 mins
BSTAR
0.0003473
Loading maneuver chart data...
Computing Atmospheric mass density...
Loading historical data...
Loading historical data...
Loading historical data...
Loading historical data...
Loading historical data...
Loading historical data...
Loading historical data...

Documentation

Showing up to 5 results
|